Über Jinan Kechuang
Group: 3 satellites
Beschreibung wird geladen...
Live-Position
3D-Globus wird geladen...
Nächste Überflüge
Höhenverlauf
Altitude vs Time
uPlot chart will show altitude changes over time
Zweizeiliger Elementsatz
1 58925U 24024J 26072.58843132 .00067417 00000-0 78304-3 0 9992
2 58925 97.3173 159.8024 0004578 93.8925 266.2857 15.61532441154727
Epoch: 13. März 2026 •
Age: 27 hours
Aktueller Status
Höhe 388.4 km
Geschwindigkeit 7.68 km/s
Subsatellitenpunkt -9.92°S,
118.79°E
Startdatum 3. Feb. 2024
Alter 2.1 years
Typ other
Technische Details
Klassifizierung Payload
Masse 50.00 kg
Trockenmasse 50.00 kg
Gesamtmasse 50.00 kg
Länge 0.40 m
Durchmesser 0.40 m
Spannweite 0.40 m
Form Box
Hersteller ZHIXJ
Bus-Typ ZX-2A
Phasenstatus In Orbit
Besitzer/Staat ZHIXJ/CN
Große Konstellationen
Loading constellations...